Torna al catalogo

STARLINK-35159

AttivoComunicazioniVLEO
NORAD 65461·PAYLOAD·🇺🇸 United States

Lanciato Sep 3, 2025 da Cape Canaveral Space Force Station

Loading…

Prossimi Passaggi (prossime 24 ore)

TLE

AggiornatoSource: CelesTrak SupGP

Epoca: Sep 14, 2026, 21:11 UTC

1 65461C 25195D   26257.88312500 -.00030564  00000+0 -90315-3 0  2570
2 65461  53.1567  96.0110 0001270  87.5780  64.6738 15.34401370    16

Traccia STARLINK-35159 in tempo reale con AllMySat

Download on the App Store